This is the latest recevied weather packets stored in our database for station/object KE4AMH. If no packets are shown the sender has not sent any weather packets the latest 10 day(s).
| Time | Temp. | Humidity | Pressure | Rain* | Wind** | Luminosity | Snow |
|---|---|---|---|---|---|---|---|
| 1777464442 | 16.67° C | 99% | 1014.2 hPa | 0 mm | - | 42 W/m² | - |
| 1777464138 | 16.67° C | 99% | 1014 hPa | 0 mm | - | 32 W/m² | - |
| 1777463837 | 16.67° C | 99% | 1014.1 hPa | 0 mm | - | 34 W/m² | - |
| 1777463533 | 16.67° C | 99% | 1014.1 hPa | 0 mm | - | 28 W/m² | - |
| 1777463228 | 16.67° C | 99% | 1013.9 hPa | 0 mm | - | 22 W/m² | - |
| 1777462924 | 16.67° C | 99% | 1013.6 hPa | 0 mm | - | 15 W/m² | - |
| 1777462621 | 16.67° C | 99% | 1013.7 hPa | 0 mm | - | 9 W/m² | - |
| 1777462316 | 16.11° C | 99% | 1013.6 hPa | 0 mm | - | 12 W/m² | - |
| 1777462012 | 16.67° C | 99% | 1013.3 hPa | 0 mm | - | 9 W/m² | - |
| 1777461709 | 16.67° C | 99% | 1014 hPa | 0 mm | - | 4 W/m² | - |
| 1777461404 | 16.67° C | 99% | 1014.1 hPa | 0 mm | - | 4 W/m² | - |
| 1777461101 | 16.11° C | 99% | 1014.4 hPa | 0 mm | - | 0 W/m² | - |
| 1777460797 | 16.11° C | 99% | 1014.3 hPa | 0 mm | - | 1 W/m² | - |
| 1777460492 | 16.11° C | 99% | 1014.3 hPa | 0 mm | - | 0 W/m² | - |
| 1777460188 | 16.67° C | 99% | 1014 hPa | 0 mm | - | 0 W/m² | - |
| 1777459886 | 16.11° C | 99% | 1013.8 hPa | 0 mm | - | 0 W/m² | - |
| 1777459582 | 16.11° C | 99% | 1013.7 hPa | 0 mm | - | 0 W/m² | - |
| 1777459280 | 16.67° C | 99% | 1013.9 hPa | 0.51 mm | - | 0 W/m² | - |
| 1777458978 | 16.11° C | 99% | 1014.2 hPa | 0 mm | - | 0 W/m² | - |
| 1777458674 | 16.11° C | 99% | 1014.2 hPa | 0 mm | - | 0 W/m² | - |
| 1777458371 | 16.11° C | 99% | 1014.4 hPa | 0 mm | - | 0 W/m² | - |
| 1777458066 | 16.11° C | 99% | 1014.5 hPa | 0 mm | - | 0 W/m² | - |
| 1777457762 | 16.11° C | 99% | 1015.1 hPa | 0 mm | - | 0 W/m² | - |
| 1777457457 | 16.11° C | 99% | 1015.1 hPa | 0 mm | - | 0 W/m² | - |
| 1777457152 | 16.11° C | 99% | 1015 hPa | 0 mm | - | 0 W/m² | - |
* Rain latest hour (hover to see other rain measurements)
** Current wind speed in m/s (hover to see current wind gust speed)